Location: Davayat
(45.9471°N, 3.1105°E)
Time: 12:39:50
(UTC+00:00)

CZ-2C R/B - Pass Details

Date: 01 December 2020
Orbit: 705 x 907 km, 98.1° (Epoch: 27 January)

Event Time Altitude Azimuth Distance (km) Brightness Sun altitude
Rises 17:14:49 0° 132° (SE) 3,211 5.9 -11.9°
Reaches altitude 10° 17:17:27 10° 119° (ESE) 2,260 5.1 -12.4°
Maximum altitude 17:21:28 26° 65° (ENE) 1,428 3.8 -13.0°
Drops below altitude 10° 17:25:24 10° 10° (N) 2,206 5.1 -13.7°
Sets 17:27:57 0° 358° (N) 3,117 6.0 -14.1°
